EW4781 Weather Reports


time (UTC)temp
F
wind
direction
speed
knots
gust
knots
rain 1hr
in
rain 24hr
in
rain mn
in
humidity
%
barometer
mb
20260506051052 45 67 0.0 0.0 0.05 0.04 0.04 99 1027.8
20260506050550 45 45 0.0 0.0 0.07 0.03 0.03 99 1028.4
20260506045040 45 55 0.0 0.0 0.00 0.01 0.01 99 1028.3
20260506044538 45 53 0.0 0.0 0.00 0.01 0.01 99 1028.2
20260506044035 45 63 0.0 0.0 0.07 0.01 0.01 99 1028.0
20260506043532 45 343 1.7 1.7 0.07 0.01 0.01 99 1028.4
20260506043030 45 71 1.7 2.6 0.00 0.00 0.00 99 1028.1
20260506042529 45 290 2.6 4.3 0.00 0.00 0.00 99 1029.1
20260506042027 45 240 2.6 2.6 0.00 0.00 0.00 99 1027.8
20260506041525 45 199 0.0 0.0 0.00 0.00 0.00 99 1028.1
20260506041021 45 36 0.0 0.0 0.00 0.00 0.00 99 1028.0
20260506040519 45 60 0.0 0.0 0.00 0.00 0.00 99 1028.0
20260506040015 45 37 0.0 0.9 0.00 0.42 0.42 99 1028.1
20260506035512 45 61 0.0 0.0 0.00 0.42 0.42 99 1028.0
20260506035009 45 60 0.0 0.0 0.00 0.42 0.42 99 1028.1
20260506034507 45 59 0.0 0.0 0.00 0.42 0.42 99 1028.4
20260506034003 45 59 0.0 0.0 0.00 0.42 0.42 99 1028.3
20260506033500 45 59 0.0 0.0 0.00 0.42 0.42 99 1028.2
20260506032957 45 46 0.0 0.0 0.00 0.42 0.42 99 1028.2
20260506032455 45 56 0.0 0.0 0.00 0.42 0.42 99 1028.1
20260506031951 46 66 0.0 0.0 0.00 0.42 0.42 99 1028.0
20260506031448 46 68 0.0 0.0 0.00 0.42 0.42 99 1028.1
20260506030946 46 71 0.0 0.0 0.00 0.42 0.42 99 1028.5
20260506030444 46 51 0.9 0.9 0.00 0.42 0.42 99 1028.2
20260506025940 46 61 0.0 0.0 0.00 0.42 0.42 99 1028.1
20260506025437 46 56 0.0 0.0 0.00 0.42 0.42 99 1027.8
20260506024934 46 48 0.0 0.9 0.00 0.42 0.42 99 1028.3
20260506024431 46 54 0.0 0.0 0.05 0.42 0.42 99 1028.3
20260506023926 46 66 0.0 0.0 0.19 0.42 0.42 99 1028.3
20260506023424 46 62 0.0 0.0 0.24 0.42 0.42 99 1028.4
20260506022920 47 79 0.0 0.0 0.17 0.39 0.39 99 1028.6
20260506022418 47 57 0.0 0.0 0.19 0.38 0.38 99 1028.7
20260506021916 47 65 0.0 0.0 0.19 0.36 0.36 99 1028.6
20260506021413 47 65 0.0 0.0 0.24 0.35 0.35 99 1028.4
20260506020910 47 65 0.0 0.0 0.17 0.33 0.33 99 1028.6
20260506020408 47 64 0.0 0.0 0.31 0.32 0.32 99 1028.5
20260506015905 47 58 0.0 0.0 0.38 0.30 0.30 99 1028.8
20260506015402 47 67 0.0 0.9 0.35 0.27 0.27 99 1028.6
20260506014859 48 64 0.0 0.0 0.24 0.25 0.25 99 1028.6
20260506014356 48 64 0.0 0.0 0.00 0.21 0.21 99 1028.5
20260506013852 48 66 0.0 0.0 0.07 0.21 0.21 99 1028.0
20260506013350 49 60 0.0 0.0 0.07 0.21 0.21 99 1028.5
20260506012846 49 86 0.0 0.0 0.00 0.20 0.20 99 1028.5
20260506012343 49 64 0.0 0.0 0.05 0.20 0.20 99 1028.3
20260506011840 49 78 0.0 0.0 0.12 0.20 0.20 99 1028.3
20260506011337 50 79 0.0 0.0 0.12 0.20 0.20 99 1028.0
20260506010834 49 95 0.0 0.0 0.00 0.18 0.18 99 1028.3
20260506010332 50 88 0.0 0.0 0.05 0.18 0.18 99 1028.3
20260506005829 50 74 0.0 0.0 0.05 0.18 0.18 99 1028.2
20260506005326 50 69 0.0 0.0 0.00 0.17 0.17 99 1028.0
20260506004822 50 69 0.0 0.0 0.00 0.17 0.17 99 1027.8
20260506004320 50 36 0.0 0.0 0.07 0.17 0.17 99 1027.6
20260506003815 50 3 0.0 0.0 0.07 0.17 0.17 98 1027.8
20260506003312 50 74 0.0 0.0 0.12 0.16 0.16 98 1028.1
20260506002808 50 45 0.0 0.9 0.12 0.16 0.16 98 1028.0
20260506002306 51 345 0.9 1.7 0.00 0.14 0.14 98 1028.1
20260506001801 51 40 0.0 0.0 0.07 0.14 0.14 98 1027.7
20260506001258 51 36 0.9 0.9 0.07 0.14 0.14 97 1027.5
20260506000755 51 57 0.0 0.0 0.00 0.13 0.13 97 1027.3
20260506000254 51 24 0.0 0.9 0.00 0.13 0.13 97 1027.2
20260505235749 51 47 0.0 0.9 0.00 0.13 0.13 97 1027.3
20260505235247 52 34 0.0 0.9 0.00 0.13 0.13 96 1027.1
20260505234743 52 44 0.0 0.0 0.00 0.13 0.13 96 1026.9
20260505234241 52 36 2.6 4.3 0.00 0.13 0.13 95 1027.1
20260505233737 52 27 2.6 2.6 0.00 0.13 0.13 95 1027.4
20260505233236 53 40 1.7 1.7 0.05 0.13 0.13 94 1027.2
20260505232732 53 62 0.0 0.0 0.05 0.13 0.13 93 1027.4
20260505232230 54 12 0.9 0.9 0.12 0.12 0.12 92 1027.4
20260505231726 55 79 0.9 1.7 0.12 0.12 0.12 91 1027.3
20260505231226 56 359 5.2 6.1 0.05 0.11 0.11 88 1027.1
20260505230723 57 267 2.6 4.3 0.00 0.10 0.10 84 1026.9
20260505230219 57 290 3.5 4.3 0.00 0.10 0.10 82 1026.6
20260505225716 58 18 0.9 1.7 0.00 0.10 0.10 81 1026.7
20260505225213 58 1 2.6 4.3 0.00 0.10 0.10 80 1026.7
20260505224708 59 4 2.6 4.3 0.00 0.10 0.10 79 1026.6
20260505224206 59 12 3.5 5.2 0.00 0.10 0.10 79 1026.4
20260505223704 59 353 2.6 4.3 0.00 0.10 0.10 78 1026.3
20260505223159 60 22 4.3 6.1 0.00 0.10 0.10 77 1026.4
20260505222656 61 42 3.5 6.1 0.00 0.10 0.10 76 1026.0
20260505222152 61 327 2.6 4.3 0.00 0.10 0.10 76 1026.2
20260505221649 62 343 4.3 5.2 0.00 0.10 0.10 75 1026.0
20260505221146 62 33 1.7 1.7 0.00 0.10 0.10 74 1025.6
20260505220643 63 21 2.6 2.6 0.00 0.10 0.10 74 1025.7
20260505220141 63 355 2.6 2.6 0.00 0.10 0.10 73 1025.6
20260505215638 63 312 1.7 1.7 0.00 0.10 0.10 73 1025.4
20260505215136 64 17 2.6 2.6 0.00 0.10 0.10 72 1025.2
20260505214634 64 51 0.9 1.7 0.00 0.10 0.10 71 1025.1
20260505214131 65 337 2.6 4.3 0.00 0.10 0.10 71 1025.2
20260505213629 65 321 2.6 2.6 0.00 0.10 0.10 70 1025.0
20260505213125 65 321 1.7 1.7 0.00 0.10 0.10 69 1024.8
20260505212620 66 301 4.3 6.1 0.00 0.10 0.10 69 1024.8
20260505212119 66 302 4.3 4.3 0.00 0.10 0.10 68 1024.9
20260505211615 67 17 1.7 1.7 0.00 0.10 0.10 67 1024.8
20260505211113 66 307 1.7 1.7 0.00 0.10 0.10 68 1024.8
20260505210609 67 277 5.2 7.0 0.00 0.10 0.10 66 1024.9
20260505210106 67 305 4.3 6.1 0.00 0.10 0.10 68 1024.7
20260505205604 67 298 3.5 5.2 0.00 0.10 0.10 68 1024.6
20260505205101 67 281 2.6 4.3 0.00 0.10 0.10 71 1024.1
20260505204558 66 185 1.7 1.7 0.00 0.10 0.10 74 1024.4
20260505204056 66 101 0.9 0.9 0.00 0.10 0.10 75 1024.3
20260505203552 65 185 1.7 2.6 0.00 0.10 0.10 75 1024.4
20260505203049 66 138 1.7 1.7 0.00 0.10 0.10 75 1024.7
20260505202545 65 244 0.9 1.7 0.00 0.10 0.10 74 1024.5
20260505202041 66 152 1.7 1.7 0.00 0.10 0.10 75 1024.8
20260505201538 66 277 1.7 2.6 0.00 0.10 0.10 74 1025.1
20260505201036 65 221 3.5 6.1 0.00 0.10 0.10 74 1025.0
20260505200533 64 279 3.5 5.2 0.00 0.10 0.10 75 1024.7
20260505200030 64 298 5.2 6.1 0.00 0.10 0.10 74 1025.0
20260505195526 63 255 4.3 5.2 0.00 0.10 0.10 77 1025.1
20260505195024 62 266 4.3 6.1 0.07 0.10 0.10 80 1025.0
20260505194521 62 286 4.3 5.2 0.07 0.10 0.10 82 1025.1
20260505194016 62 299 6.1 7.0 0.05 0.09 0.09 79 1025.2
20260505193514 63 291 5.2 6.1 0.05 0.09 0.09 74 1024.8
20260505193011 66 329 4.3 5.2 0.00 0.08 0.08 67 1025.0
20260505192509 67 287 4.3 6.1 0.00 0.08 0.08 63 1024.7
20260505192007 68 279 7.8 8.7 0.00 0.08 0.08 62 1024.6
20260505191505 68 356 0.9 1.7 0.00 0.08 0.08 63 1024.5
20260505191002 69 250 2.6 2.6 0.00 0.08 0.08 62 1024.4
20260505190457 70 286 3.5 5.2 0.00 0.08 0.08 60 1024.3
20260505185952 69 297 3.5 4.3 0.00 0.08 0.08 60 1024.1
20260505185450 69 271 9.6 9.6 0.00 0.08 0.08 59 1024.1
20260505184946 69 278 4.3 5.2 0.00 0.08 0.08 60 1024.1
20260505184443 69 247 5.2 7.8 0.00 0.08 0.08 62 1024.0
20260505183939 69 189 2.6 4.3 0.00 0.08 0.08 63 1024.3
20260505183437 69 286 3.5 4.3 0.00 0.08 0.08 62 1024.1
20260505182933 69 302 6.1 7.8 0.00 0.08 0.08 62 1024.6
20260505182430 70 247 2.6 4.3 0.00 0.08 0.08 63 1024.4
20260505181926 69 192 5.2 7.8 0.00 0.08 0.08 63 1024.3
20260505181424 69 138 5.2 6.1 0.00 0.08 0.08 63 1024.4
20260505180921 68 264 9.6 12.2 0.00 0.08 0.08 68 1024.5
20260505180417 68 294 6.1 7.0 0.00 0.08 0.08 68 1024.7
20260505175914 67 242 4.3 5.2 0.00 0.08 0.08 72 1024.4
20260505175410 66 227 2.6 2.6 0.00 0.08 0.08 75 1024.3
20260505174906 65 273 7.0 7.8 0.00 0.08 0.08 74 1023.9
20260505174404 65 202 2.6 4.3 0.00 0.08 0.08 78 1024.1
20260505173900 63 208 3.5 5.2 0.00 0.08 0.08 81 1024.6
20260505173356 62 248 5.2 7.0 0.00 0.08 0.08 83 1024.8
20260505172854 61 223 2.6 4.3 0.00 0.08 0.08 88 1024.6
20260505172351 60 256 3.5 5.2 0.00 0.08 0.08 87 1024.4
20260505171851 59 278 4.3 7.8 0.00 0.08 0.08 88 1025.0
20260505171348 60 289 4.3 6.1 0.00 0.08 0.08 88 1025.0
20260505170844 60 277 3.5 5.2 0.07 0.08 0.08 85 1024.9
20260505170342 60 235 6.1 7.8 0.12 0.08 0.08 84 1025.0
20260505165837 61 249 4.3 7.8 0.05 0.07 0.07 80 1024.9
20260505165332 65 296 11.3 14.8 0.00 0.06 0.06 71 1024.6
20260505164829 67 268 3.5 4.3 0.00 0.06 0.06 62 1024.5
20260505164325 67 261 6.1 7.8 0.00 0.06 0.06 60 1024.5
20260505163823 67 198 3.5 4.3 0.00 0.06 0.06 61 1024.3
20260505163322 67 251 4.3 5.2 0.00 0.06 0.06 61 1024.3
20260505162820 67 272 5.2 7.0 0.00 0.06 0.06 60 1024.3
20260505162316 67 279 3.5 5.2 0.00 0.06 0.06 60 1024.1
20260505161813 67 280 6.1 9.6 0.00 0.06 0.06 59 1024.4
20260505161310 68 253 7.8 13.0 0.00 0.06 0.06 59 1024.3
20260505160808 68 229 6.1 6.1 0.00 0.06 0.06 59 1023.9
20260505160305 68 194 6.1 8.7 0.00 0.06 0.06 58 1023.8
20260505153244 69 280 7.0 7.8 0.00 0.06 0.06 59 1023.4
20260505152741 69 216 4.3 6.1 0.00 0.06 0.06 61 1023.6
20260505152237 69 202 6.1 7.0 0.00 0.06 0.06 60 1023.5
20260505151732 68 174 4.3 4.3 0.00 0.06 0.06 62 1023.5
20260505151230 68 233 6.1 7.8 0.00 0.06 0.06 62 1023.8
20260505150726 68 251 6.1 6.1 0.00 0.06 0.06 61 1023.6
20260505150223 68 228 5.2 8.7 0.00 0.06 0.06 62 1023.7
20260505140651 66 245 4.3 6.1 0.00 0.06 0.06 65 1023.4
20260505140148 66 255 4.3 5.2 0.00 0.06 0.06 66 1023.3
20260505130112 65 258 4.3 6.1 0.00 0.06 0.06 69 1023.4
20260505124601 64 227 2.6 4.3 0.00 0.06 0.06 68 1023.5
20260505124057 64 208 4.3 6.1 0.00 0.06 0.06 70 1023.5
20260505123554 64 225 6.1 7.8 0.00 0.06 0.06 69 1023.6
20260505123050 64 156 1.7 2.6 0.00 0.06 0.06 70 1023.2
20260505122547 64 204 3.5 5.2 0.00 0.06 0.06 69 1023.4
20260505122044 64 252 6.1 8.7 0.00 0.06 0.06 70 1023.3
20260505121541 63 285 4.3 6.1 0.00 0.06 0.06 72 1023.3
20260505121038 63 306 4.3 5.2 0.00 0.06 0.06 71 1023.3
20260505120534 63 198 3.5 6.1 0.00 0.06 0.06 71 1023.3
20260505120030 63 274 5.2 7.0 0.00 0.06 0.06 71 1023.4
20260505115524 62 240 3.5 4.3 0.00 0.06 0.06 73 1023.5
20260505115022 61 236 4.3 5.2 0.00 0.06 0.06 73 1023.5
20260505114519 61 266 6.1 9.6 0.00 0.06 0.06 74 1023.4
20260505114015 61 206 3.5 4.3 0.00 0.06 0.06 75 1023.5
20260505113512 61 250 2.6 4.3 0.00 0.06 0.06 75 1023.5
20260505113008 60 271 4.3 6.1 0.00 0.06 0.06 76 1023.4
20260505112504 60 248 2.6 2.6 0.00 0.06 0.06 76 1023.3
20260505112002 60 255 5.2 9.6 0.00 0.06 0.06 76 1023.4
20260505111456 60 230 3.5 5.2 0.00 0.06 0.06 77 1023.4
20260505110953 60 239 2.6 4.3 0.00 0.06 0.06 77 1023.4
20260505110449 59 244 2.6 2.6 0.00 0.06 0.06 77 1023.4
20260505101920 59 250 2.6 5.2 0.00 0.06 0.06 78 1023.0
20260505101415 59 244 2.6 2.6 0.00 0.06 0.06 78 1023.2
20260505100911 59 202 3.5 5.2 0.00 0.06 0.06 78 1022.9
20260505100408 59 245 3.5 5.2 0.00 0.06 0.06 79 1022.8
20260505095903 59 221 2.6 2.6 0.00 0.06 0.06 79 1022.7
20260505095401 59 228 2.6 2.6 0.00 0.06 0.06 78 1022.7
20260505094857 58 237 2.6 2.6 0.00 0.06 0.06 79 1022.8
20260505094354 58 190 2.6 2.6 0.00 0.06 0.06 80 1022.9
20260505093849 58 175 2.6 2.6 0.00 0.06 0.06 79 1022.7
20260505093347 59 231 1.7 1.7 0.00 0.06 0.06 78 1022.8
20260505092844 59 247 3.5 5.2 0.00 0.06 0.06 78 1023.0
20260505092342 59 230 3.5 4.3 0.00 0.06 0.06 78 1022.7
20260505091839 59 201 2.6 2.6 0.00 0.06 0.06 77 1022.7
20260505091337 60 232 1.7 1.7 0.00 0.06 0.06 76 1022.9
20260505090835 59 233 2.6 2.6 0.00 0.06 0.06 77 1022.9
20260505090333 59 253 2.6 2.6 0.00 0.06 0.06 81 1022.7
20260505085830 59 249 2.6 4.3 0.00 0.06 0.06 80 1023.3
20260505085328 59 220 3.5 4.3 0.00 0.06 0.06 77 1023.0
20260505084826 59 256 4.3 5.2 0.00 0.06 0.06 77 1023.1
20260505084324 59 193 3.5 5.2 0.00 0.06 0.06 77 1023.2
20260505083820 59 246 2.6 2.6 0.00 0.06 0.06 78 1023.3
20260505083318 59 201 2.6 2.6 0.00 0.06 0.06 78 1023.2
20260505082814 59 219 3.5 5.2 0.00 0.06 0.06 78 1023.2
20260505082311 59 196 1.7 2.6 0.00 0.06 0.06 78 1023.0
20260505081807 59 286 2.6 2.6 0.00 0.06 0.06 78 1022.8
20260505081304 59 247 7.0 11.3 0.00 0.06 0.06 78 1022.9
20260505080800 59 243 4.3 6.1 0.00 0.06 0.06 78 1023.0
20260505080256 58 240 3.5 4.3 0.00 0.06 0.06 79 1022.9
20260505075752 58 263 2.6 2.6 0.00 0.06 0.06 79 1022.8
20260505075250 58 293 4.3 5.2 0.00 0.06 0.06 80 1022.7
20260505074747 58 275 2.6 2.6 0.00 0.06 0.06 80 1022.8
20260505074244 58 278 2.6 4.3 0.00 0.06 0.06 81 1022.8
20260505073741 57 244 3.5 5.2 0.00 0.06 0.06 83 1022.9
20260505073239 57 226 2.6 2.6 0.00 0.06 0.06 85 1023.1
20260505072736 56 243 2.6 2.6 0.00 0.06 0.06 86 1022.8
20260505072232 56 331 1.7 1.7 0.00 0.06 0.06 87 1022.9
20260505071727 56 139 0.9 0.9 0.00 0.06 0.06 86 1022.9
20260505071225 56 176 1.7 1.7 0.00 0.06 0.06 87 1022.9
20260505070722 56 12 0.9 0.9 0.07 0.06 0.06 88 1023.1
20260505070218 56 297 2.6 2.6 0.07 0.06 0.06 88 1023.1
20260505065714 56 313 0.9 1.7 0.07 0.06 0.06 88 1023.0
20260505065211 57 278 2.6 4.3 0.00 0.05 0.05 87 1023.4
20260505064708 57 242 2.6 2.6 0.00 0.05 0.05 86 1023.5
20260505064206 57 241 2.6 2.6 0.00 0.05 0.05 86 1023.5
20260505063704 57 227 2.6 2.6 0.00 0.05 0.05 86 1023.4
20260505063159 57 284 2.6 2.6 0.00 0.05 0.05 85 1023.7
20260505062655 57 257 2.6 2.6 0.00 0.05 0.05 84 1023.7
20260505062154 57 228 2.6 2.6 0.00 0.05 0.05 83 1023.5
20260505061650 57 239 3.5 4.3 0.00 0.05 0.05 85 1023.4
20260505061148 56 207 1.7 1.7 0.00 0.05 0.05 85 1023.2
20260505060645 56 244 0.9 2.6 0.00 0.05 0.05 85 1023.3
20260505060142 55 242 1.7 1.7 0.00 0.05 0.05 88 1023.3